Regional Weather Roundup
Issued by NWS

Home | Current Version | Previous Version | Text Only | Print | Product List | Glossary Off
Versions: 1 2 3 4 5 6 7 8 9 10 11 12 13 14 15 16 17 18 19 20 21 22 23 24 25 26 27 28 29 30 31 32 33 34 35 36 37 38 39 40 41 42 43 44 45 46 47 48 49 50

000
ASUS43 KMPX 270710
RWRMN
WEATHER ROUNDUP FOR MINNESOTA
NATIONAL WEATHER SERVICE TWIN CITIES/CHANHASSEN MN
100 AM CST THU NOV 27 2014


NOTE: "FAIR" INDICATES FEW OR NO CLOUDS BELOW 12,000 FEET WITH NO
SIGNIFICANT WEATHER AND/OR OBSTRUCTIONS TO VISIBILITY. N/A MEANS
CURRENT SKY AND/OR WEATHER CONDITIONS ARE NOT AVAILABLE.

MNZ060>063-068>070-270800-
   Twin Cities Metro

CITY           SKY/WX    TMP DP  RH WIND       PRES   REMARKS
TWIN CITIES    PTCLDY     8  -3  61 N14       30.43R WCI  -8
ST PAUL        CLEAR      9  -1  64 NW14      30.44R WCI  -7
CRYSTAL        CLEAR      8  -3  61 NW13      30.43R WCI  -8
BLAINE         CLEAR      9   0  66 NW10      30.42R WCI  -6
LAKEVILLE      CLEAR      5  -2  72 NW8       30.40R WCI  -8
EDEN PRAIRIE   PTCLDY     8  -4  58 N12       30.41R WCI  -7
SOUTH ST PAUL  CLEAR     11  -1  57 N9        30.41R WCI  -2
LAKE ELMO      FAIR      10   0  61 N7        30.41R WCI   0
$$
MNZ001>005-007-008-013>017-022>024-027-028-270800-
   Northwest Minnesota

CITY           SKY/WX    TMP DP  RH WIND       PRES   REMARKS
BEMIDJI        FAIR     -13 -17  80 W5        30.45R WCI -25
HALLOCK        MOCLDY   -17 -22  76 SW3       30.55S
ROSEAU         PTCLDY   -11 -17  77 CALM      30.50F
WARROAD        PTCLDY   -13 -18  77 CALM      30.49S
THIEF RVR FALL MOCLDY    -9 -17  70 CALM      30.51R
CROOKSTON      PTCLDY   -11 -17  77 NW3       30.57S
FOSSTON        MOCLDY   -17 -22  76 CALM      30.50R
DETROIT LAKES  FAIR      -8 -13  77 N6        30.49S WCI -21
MOORHEAD       CLEAR     -9 -13  84 N3        30.56S
PARK RAPIDS    PTCLDY   -12 -16  82 NW6       30.45R WCI -26
MAHNOMEN       FAIR     -11 -16  80 W5        30.50S WCI -23
$$
MNZ006-009>011-018-025>026-270800-
   North Central Minnesota

CITY           SKY/WX    TMP DP  RH WIND       PRES   REMARKS
BAUDETTE       PTCLDY   -12 -17  78 W3        30.47R
FLAG ISLAND    PTCLDY   -13 -18  77 NW6       30.47S WCI -27
INTL FALLS     PTCLDY   -12 -16  82 NW3       30.45S
WASKISH        PTCLDY    -9 -13  84 CALM      30.46S
BIG FORK       CLEAR     -9 -15  77 CALM      30.43S
LONGVILLE      CLEAR     -6  -9  84 CALM      30.44S
GRAND RAPIDS   CLEAR     -8 -11  84 N7        30.40S WCI -22
CRANE LAKE     CLEAR     -6 -11  77 N6        30.44F WCI -18
ORR            CLEAR    -11 -17  77 CALM      30.38S
COOK           CLEAR    -15 -18  84 CALM      30.41R
WALKER         FAIR     -10 -15  81 CALM      30.45R
$$
MNZ012-019>021-037-270800-
   Northeast Minnesota

CITY           SKY/WX    TMP DP  RH WIND       PRES   REMARKS
DULUTH         CLEAR     -3  -9  75 N10       30.34R WCI -20
ELY            CLEAR     -8 -11  84 NW3       30.38R
HIBBING        CLEAR     -5 -12  72 N9        30.40R WCI -22
EVELETH        CLEAR     -2  -8  78 N5        30.39S WCI -12
DULUTH HARBOR  PTCLDY     3  -4  72 N12G17    30.46R WCI -13
TWO HARBORS    CLEAR      1  -8  66 N3        30.36R
SILVER BAY     CLEAR      0  -8  71 NW5       30.35R WCI -10
GRAND MARAIS     N/A      0 -10  63 N18G32    30.36R WCI -21
G MARAIS ARPRT PTCLDY    -9 -15  77 N12G20    30.25S WCI -29
$$
MNZ029>031-032-039>041-046>048-054>057-064-270800-
   West Central Minnesota

CITY           SKY/WX    TMP DP  RH WIND       PRES   REMARKS
FERGUS FALLS   PTCLDY    -8 -15  71 N6        30.56S WCI -21
WHEATON        PTCLDY    -8 -11  84 NW6       30.56S WCI -21
MORRIS         CLEAR     -6 -11  77 NW9       30.50R WCI -22
ALEXANDRIA     CLEAR     -4  -9  79 N9        30.46S WCI -20
ELBOW LAKE     FAIR      -7 -11  83 N6        30.50R WCI -20
WADENA         CLEAR     -8 -11  84 NW6       30.46S WCI -21
GLENWOOD       CLEAR     -4  -9  77 NW8       30.46S WCI -19
APPLETON       PTCLDY    -2  -9  71 N10       30.52S WCI -19
BENSON         CLEAR     -6  -9  84 N7        30.49S WCI -20
ORTONVILLE     PTCLDY    -6  -9  84 NW7       30.53R WCI -20
MADISON        PTCLDY    -2  -8  78 W8        30.53S WCI -17
WILLMAR        FAIR      -2  -8  78 NW7       30.47S WCI -16
$$
MNZ033>034-036-042>043-049>051-058-059-270800-
   Central Minnesota

CITY           SKY/WX    TMP DP  RH WIND       PRES   REMARKS
ST CLOUD       CLEAR      3  -6  66 NW7       30.46R WCI  -9
SAUK CENTRE    FAIR      -4  -9  79 NW9       30.47R WCI -20
PAYNESVILLE    CLEAR     -4  -9  81 W8        30.46S WCI -19
AITKIN         CLEAR     -2  -9  71 CALM      30.43R
PINE RIVER     CLEAR     -6  -9  84 CALM      30.47R
BRAINERD       CLEAR     -3  -8  79 N7        30.45R WCI -16
STAPLES        CLEAR     -8 -11  84 NW7       30.46R WCI -22
LONG PRAIRIE   FAIR      -4  -9  77 NW6       30.46S WCI -16
LITTLE FALLS   CLEAR      0  -8  71 NW5       30.47R WCI -10
LITCHFIELD     CLEAR      1  -4  78 NW10      30.46R WCI -14
BUFFALO        CLEAR      4  -4  68 NW9       30.46R WCI -10
MAPLE LAKE     CLEAR      5  -3  72 NW12      30.46R WCI -11
$$
MNZ037-044-045-052-053-270800-
   East Central Minnesota

CITY           SKY/WX    TMP DP  RH WIND       PRES   REMARKS
PRINCETON      CLEAR      3  -2  78 NW6       30.44R WCI  -8
MORA           CLEAR      1  -6  71 N6        30.45R WCI -10
CAMBRIDGE      CLEAR      7  -4  61 NW7       30.43R WCI  -5
RUSH CITY      MOCLDY     4  -3  72 NW6       30.43R WCI  -7
MOOSE LAKE     CLEAR      0  -6  78 N6        30.41R WCI -12
HINCKLEY       FAIR       3  -2  78 N9        30.43R WCI -11
CLOQUET        CLEAR     -2  -8  78 NW8       30.38S WCI -17
MCGREGOR       CLEAR     -2  -6  84 NW7       30.43S WCI -16
$$
MNZ071>073-080-081-089-090-097-098-270800-
   Southwest Minnesota

CITY           SKY/WX    TMP DP  RH WIND       PRES   REMARKS
MONTEVIDEO     CLEAR     -4  -8  84 N9        30.52R WCI -20
GRANITE FALLS  CLEAR     -3  -8  79 W10       30.53R WCI -20
CANBY          PTCLDY    -3  -8  82 NW10      30.53S WCI -21
MARSHALL       PTCLDY    -2  -9  71 NW13      30.48S WCI -21
REDWOOD FALLS  CLEAR     -1  -6  79 NW13G20   30.48R WCI -19
OLIVIA         CLEAR      0  -6  78 NW12      30.48S WCI -18
PIPESTONE      CLEAR      0  -8  71 N8        30.43F WCI -15
WINDOM         CLEAR     -2  -8  78 NW18G24   30.44S WCI -24
WORTHINGTON    CLEAR      0  -8  71 N15       30.43S WCI -20
JACKSON        CLEAR      1  -6  71 NW16      30.43R WCI -18
TRACY          CLEAR     -2  -7  78 NW12G18   30.47S WCI -19
SLAYTON        CLEAR     -2  -8  76 NW8       30.45R WCI -17
$$
MNZ065>067-074>077-082>085-091>093-270800-
   South Central Minnesota

CITY           SKY/WX    TMP DP  RH WIND       PRES   REMARKS
MANKATO        CLEAR      3  -6  66 NW14      30.42R WCI -15
NEW ULM        CLEAR     -2  -6  84 NW13      30.45S WCI -21
ST JAMES       CLEAR      0  -6  78 NW16      30.47R WCI -21
FAIRMONT       CLEAR      1  -6  71 NW20      30.42R WCI -20
GLENCOE        CLEAR      5  -2  74 NW7       30.44R WCI  -7
FARIBAULT      CLEAR      9   0  66 NW10      30.40R WCI  -6
OWATONNA       CLOUDY    12   3  67 NW13      30.38R WCI  -3
WASECA         PTCLDY     9  -2  61 NW9       30.42R WCI  -5
ALBERT LEA     CLOUDY    12   9  85 NW9G16    30.36S WCI   0
$$
MNZ078>079-086>088-094>096-270800-
   Southeast Minnesota

CITY           SKY/WX    TMP DP  RH WIND       PRES   REMARKS
ROCHESTER      CLOUDY    16  11  80 NW18      30.32R WCI   0
RED WING       CLOUDY    16   7  67 N9        30.38R WCI   4
STANTON        PTCLDY    13   2  63 N13       30.38R WCI  -2
DODGE CENTER   FLURRIES  12  10  92 NW10      30.34R WCI  -1
WINONA         FLURRIES  23  19  86 NW13G18   30.34R WCI  11
AUSTIN         CLOUDY    12  10  92 NW12      30.35R WCI  -2
PRESTON        CLOUDY    19  15  84 NW14      30.30R WCI   5
$$
ABBREVIATIONS USED IN REMARKS
   TC - TEMPERATURES IN CELSIUS
  WCI - WIND CHILL INDEX
   HX - HEAT INDEX
  VSB - VISIBILITY
$$



USA.gov is the U.S. government's official web portal to all federal, state and local government web resources and services.